Regional Weather Roundup
Issued by NWS Huntsville, AL

Home | Current Version | Previous Version | Text Only | Print | Product List | Glossary On
Versions: 1 2 3 4 5 6 7 8 9 10 11 12 13 14 15 16 17 18 19 20 21 22 23 24 25 26 27 28 29 30 31 32 33 34 35 36 37 38 39 40 41 42 43 44 45 46 47 48 49 50
543
ASUS44 KHUN 081510
RWRHUN

WEATHER ROUNDUP FOR THE TENNESSEE VALLEY
NATIONAL WEATHER SERVICE HUNTSVILLE AL
900 AM CST MON FEB 08 2016

ALZ001>004-081600-
NORTHWEST ALABAMA

CITY           SKY/WX    TMP DP  RH WIND       PRES   REMARKS
SHOALS AIRPORT SUNNY     45  24  43 W17       29.88R
SHOALS TVA RES   N/A     43 N/A N/A MISG        N/A
$$

ALZ005>007-016-081600-
NORTH CENTRAL ALABAMA

CITY           SKY/WX    TMP DP  RH WIND       PRES   REMARKS
DECATUR AP     SUNNY     44  24  45 NW17G28   29.87R
HUNTSVILLE AP  MOSUNNY   47  24  40 NW20      29.85R
HUN NWS/UAH      N/A     45  21  38 W12         N/A
MERIDIANVILLE  SUNNY     43  21  42 NW15G26   29.84R
REDSTONE ARSN  SUNNY     46  25  44 NW15G24   29.84R
VINEMONT AP    FAIR      45  25  44 NW12G18   29.87R
$$

ALZ008>010-081600-
NORTHEAST ALABAMA

CITY           SKY/WX    TMP DP  RH WIND       PRES   REMARKS
ALBERTVILLE    MOSUNNY   45  32  61 W15       29.83R
FORT PAYNE     MOSUNNY   43  28  56 SW10      29.81S
SCOTTSBORO AP  SUNNY     46  27  46 NW10G18   29.83R
SCOTTSBORO HCN   N/A     46 N/A N/A MISG        N/A
VALLEY HEAD      N/A     41 N/A N/A MISG        N/A
$$

TNZ076-096-097-081600-
SOUTHEASTERN MIDDLE TENNESSEE

CITY           SKY/WX    TMP DP  RH WIND       PRES   REMARKS
TULLAHOMA      SUNNY     43  21  42 W17       29.79S
WINCHESTER     SUNNY     43  28  56 W10       29.80S
$$

...SURROUNDING SITES...

CITY           SKY/WX    TMP DP  RH WIND       PRES   REMARKS
ATLANTA        PTSUNNY   46  28  49 W10G20    29.83F
ANNISTON       CLOUDY    42  30  62 W6        29.88S
BIRMINGHAM     CLOUDY    44  31  60 SW10      29.91R
CHATTANOOGA    MOSUNNY   48  29  47 S8        29.79F
DALTON         NOT AVBL
GADSDEN        MOSUNNY   46  32  58 SW7       29.86S
GOLDEN TRNGL   SUNNY     46  28  49 NW12G21   29.95R
HALEYVILLE     FAIR      43  21  41 NW10G21   29.90R
JACKSON TN     MOSUNNY   44  24  45 NW18G25   29.88R
MEMPHIS        MOSUNNY   45  23  42 NW22G33   29.94R
NASHVILLE      PTSUNNY   44  24  45 W12G21    29.80R
OXFORD MS      FAIR      45  21  39 W16G22    29.96S
ROME           PTSUNNY   42  31  64 SW7       29.81F
TUPELO         SUNNY     46  22  38 NW8       29.94R
TUSCALOOSA     CLOUDY    45  33  63 W5        29.95R
$$

...GULF COAST WEATHER...

CITY           SKY/WX    TMP DP  RH WIND       PRES   REMARKS
GULFPORT       SUNNY     52  39  61 W12G22    30.07R
PASCAGOULA     SUNNY     54  41  61 W8        30.05R
MOBILE         SUNNY     49  40  71 W10       30.04R
GULF SHORES    SUNNY     56  46  69 W18       30.03F
PENSACOLA      MOSUNNY   57  44  62 W9G20     30.02F
DESTIN         SUNNY     58  44  60 W8        30.03S
PANAMA CITY    SUNNY     59  43  54 W17       30.04S
APPALACHICOLA  SUNNY     58  45  62 W8        30.06R
$$





USA.gov is the U.S. government's official web portal to all federal, state and local government web resources and services.